Погода Красный Яр

Погода Красный Яр : погода сейчас, прогноз погоды и архив. Всё, что Вы хотите узнать о погоде Красный Яр!

Хотите узнать прогноз погоды Красный Яр? Тогда Вам сюда: Погода Красный Яр

Поиск расширенной информации на нашем сайте:

Другие новости

Новости СМИ2

Главная страница сайта

Новости сайта

02.10.2013

Напоминаем, что на нашем новом сайте вы можете получить высокодетализированные прогнозы погоды по пунктам России, СНГ и мира (включающие важные для авиации метеовеличины, такие как направление и скорость ветра, видимость, явления погоды, количество и форма облачности, нижняя и верхняя граница облачности), а также ознакомиться с разнообразными материалами по авиационной метеорологии и подборкой полезных ссылок на эту тему.

Сайт Метеоцентр.Азия посвящён разработке технологий оптимизации авиаметеорологического обслуживания, включая проектирование и перспективное создание нескольких автоматизированных авиаметеорологических систем:
- система выпуска высокодетальных прогностических карт явлений погоды для нижнего воздушного пространства по России и ближнему зарубежью;
- система верификации прогнозов TAF (выпускаемых синоптиками официальных АМСГ РФ и ближнего зарубежья) и AUTOTAF (выпускаемых сайтом Метеоцентр.Азия) - выявление ошибок, онлайн-сопоставление с фактической погодой METAR, автоматическое внесение коррективов в прогнозы при резком отклонении фактической погоды от прогноза, подсчёт оправдываемости прогнозов по элементам и в целом;
- система обработки, анализа и отображения авиаметеорологической информации для применения провайдерами метеорологической информации.

Рекомендуем: Самая детальная информация у нас на сайте: усыновление - смотрите тут.

Погода Красный Яр - сегодня

Время (UTC), дата Ветер
(°,м/с) 
Видим.   Явления Облачность Т
(°С)
Тd
(°С)
f(%) Тe
(°С)
Pmin
(гПа)
dP
(гПа)
Po
(мм)
O2
(г/м3)
Тmin Tmax R s Состояние
почвы
03 18.02.17 240 (ЮЗ) 20000 м    9/0 600 м верхняя 
[Ci fib]
-14.2 -20.4 59 -16  1017.3  -1  750  320           
06 18.02.17 280 (З) 20000 м    8/0 600 м верхняя 
[Ci fib]
-12.8 -21.2 49 -16  1016.9  -0.4  750  319           
12 18.02.17 000 (С) 20000 м    8/0 600 м верхняя 
[Ci fib]
-17.7 -21.1 75 -20  1020.3  1.4  752  326           
15 18.02.17 тихо ()   20000 м    ясно 
-24.4 -26.5 83 -24  1020.5  -0.2  752  335           
18 18.02.17 тихо ()   20000 м    ясно 
-28.3 -31.3 76 -28  1020.8  752  340           
21 18.02.17 000 (С) 20000 м    ясно 
-30.5 -33.6 74 -31  1021.1  0.1  752  343  -30.9         
00 19.02.17 тихо ()   20000 м    ясно 
-21.9 -25.4 73 -22  1020.9  0.5  752  331  -31.5         
03 19.02.17 270 (З) 20000 м    ясно 
-12.6 -25 35 -15  1018.2  -2  751  319           
06 19.02.17 260 (З) 20000 м    ясно 
-10.1 -24.9 29 -10  1015.4  -2.6  749  315           
09 19.02.17 тихо ()   20000 м    ясно 
-16.2 -26.5 41 -16  1015.4  -0.4  749  322    -9.9       
12 19.02.17 тихо ()   20000 м    ясно 
-25 -28.7 71 -25  1015.7  -0.3  748  334           
15 19.02.17 тихо ()   20000 м    ясно 
-28.2 -31.1 76 -28  1016  0.1  748  338           
18 19.02.17 тихо ()   20000 м    ясно 
-30.6 -33.6 75 -31  1014.8  -1.4  747  341           
21 19.02.17 тихо ()   20000 м    ясно 
-32.4 -35.1 77 -32  1014.7  -0.2  747  344  -32.4      43  равномерный
сухой снег
100% 
00 20.02.17 тихо ()   20000 м    ясно 
-23.7 -27.7 70 -24  1015.9  1.8  749  332  -33         
03 20.02.17 тихо ()   20000 м    ясно 
-11.8 -23.6 37 -12  1014.1  -0.9  748  317           
06 20.02.17 270 (З) 20000 м    ясно 
-8.3 -22 32 -11  1013  -0.8  747  312           
09 20.02.17 290 (З) 20000 м    ясно 
-12 -23.5 38 -16  1015.4  2.2  749  317    -8.1       
12 20.02.17 тихо ()   20000 м    ясно 
-18 -24.9 55 -18  1019  751  326           
15 20.02.17 тихо ()   20000 м    ясно 
-26 -28.4 80 -26  1020.6  1.1  752  337           
18 20.02.17 тихо ()   20000 м    ясно 
-29.4 -32.3 76 -29  1021.9  753  342           
21 20.02.17 тихо ()   20000 м    ясно 
-30.5 -33.5 75 -31  1024.4  2.4  755  344  -30.5      43  равномерный
сухой снег
100% 
00 21.02.17 тихо ()   20000 м    ясно 
-19.6 -23.9 69 -20  1026.1  2.5  756  330  -31.1         
03 21.02.17 270 (З) 20000 м    ясно 
-10.1 -22.8 35 -13  1025.5  756  318           
06 21.02.17 280 (З) 20000 м    ясно 
-7.8 -21.8 32 -11  1024.9  -0.5  756  315           
Время (UTC), дата Ветер
(°,м/с) 
Видим.   Явления Облачность Т
(°С)
Тd
(°С)
f(%) Тe
(°С)
Pmin
(гПа)
dP
(гПа)
Po
(мм)
O2
(г/м3)
Тmin Tmax R s Состояние
почвы

Для получения пояснительной информации подведите курсор к названию столбца.

ПОГОДА Красный Яр - архив

Всё, что Вы хотите узнать о погоде Красный Яр - удобно и подробно!

Выберите нужную дату (начиная с 1 января 2015* года) и нажмите кнопку "Найти".
Будут отображены архивные сводки погоды по пункту Красный Яр, начиная с указанной даты.


Отображать данные в формате CSV (для использования в таблицах Excel)


Внимание! Наш архив погоды предназначен исключительно для личного некоммерческого использования в познавательных целях. Если Вам необходимы официальные справки о состоянии погоды (для производственных, юридических, коммерческих и т.п. целей), обращайтесь в органы Росгидромета.

*Примечание: данная дата относится к архиву по метеостанциям СССР (Россия, СНГ, Балтия).
Архив по метеостанциям Зарубежной Европы и Азии (кроме Китая) хранится 10 дней, по другим регионам земного шара (Китай, Африка, Америка, Австралия, Океания) - 1 день.

Красный Яр - район местоположения метеостанции


Название, широта, долгота, высота метеостанции:
Красный Яр 46.5°ш. 135.3°д. 130 м над ур. моря [Российская Федерация]

Дополнительная информация

В oтличие oт бoльшинства пoгoдных сайтoв мы публикуем пoдрoбную метеoинфoрмацию в детальнoм прoфессиoнальнoм фoрмате.

Характеристики температуры и влажнoсти вoздуха измеряются на высoте 2 м в тени вдали oт зданий и деревьев.
Скoрoсть ветра измеряется на высoте 10 м (на урoвне рoста челoвека скoрoсть ветра ниже в 1.5-2 раза). Если метеoстанция нахoдится в гoрoде или в лесу, тo скoрoсть ветра занижена на 2-4 м/с пo сравнению с oткрытым местoм. Скoрoсть ветра над акватoриями крупных рек и oзёр, а также на вершинах хoлмoв на 2-5 м/с выше, чем в oбычных услoвиях.
Атмoсфернoе давление в разных тoчках местнoсти мoжет значительнo oтличаться oт давления на метеoстанции, в зависимoсти oт услoвий рельефа (при пoдъёме на 10 м давление пoнижается примернo на 1 мм рт.ст.).